IRIDIUM 106 1 41917U 17003A 26256.42242981 .00000053 00000+0 12002-4 0 9992 2 41917 86.3938 51.6353 0001986 83.8720 276.2702 14.34217772505853 IRIDIUM 103 1 41918U 17003B 26256.40974638 .00000007 00000+0 -46075-5 0 9990 2 41918 86.3938 51.5402 0002318 89.6631 270.4831 14.34217041505873 IRIDIUM 109 1 41919U 17003C 26256.41608802 .00000162 00000+0 50743-4 0 9996 2 41919 86.3937 51.5989 0002192 92.9057 267.2390 14.34213980505841 IRIDIUM 102 1 41920U 17003D 26256.38437770 .00000072 00000+0 18475-4 0 9994 2 41920 86.3938 51.5335 0002086 91.3861 268.7574 14.34218161505922 IRIDIUM 105 1 41921U 17003E 26256.62205126 .00000140 00000+0 42836-4 0 9994 2 41921 86.4006 19.8856 0002271 98.5089 261.6364 14.34217609507817 IRIDIUM 104 1 41922U 17003F 26256.39707937 .00000265 00000+0 87671-4 0 9990 2 41922 86.3939 51.5721 0002414 94.5000 265.6472 14.34219478505913 IRIDIUM 114 1 41923U 17003G 26256.40340619 .00000175 00000+0 55551-4 0 9995 2 41923 86.3946 51.5524 0002207 90.3717 269.7731 14.34215306505898 IRIDIUM 108 1 41924U 17003H 26256.36192585 .00000072 00000+0 18680-4 0 9996 2 41924 86.3999 19.8789 0002127 95.8745 264.2693 14.34217526507748 IRIDIUM 112 1 41925U 17003J 26256.39072305 .00000101 00000+0 28885-4 0 9998 2 41925 86.3935 51.3956 0002177 93.2744 266.8701 14.34217937505913 IRIDIUM 111 1 41926U 17003K 26256.37803387 .00000051 00000+0 11308-4 0 9995 2 41926 86.3936 51.4734 0002160 90.3510 269.7933 14.34217478505897 IRIDIUM 113 1 42803U 17039A 26256.49753622 .00000011 00000+0 -32327-5 0 9990 2 42803 86.3925 285.2658 0002209 93.7672 266.3776 14.34217678483842 IRIDIUM 123 1 42804U 17039B 26256.25994091 .00000048 00000+0 10238-4 0 9997 2 42804 86.3984 316.8432 0002247 90.3864 269.7589 14.34217224482572 IRIDIUM 120 1 42805U 17039C 26256.49119335 .00000009 00000+0 -39805-5 0 9994 2 42805 86.3914 285.0395 0002036 90.3959 269.7471 14.34217618483839 IRIDIUM 115 1 42806U 17039D 26256.51539528 .00000205 00000+0 55046-4 0 9999 2 42806 86.4451 285.1705 0002362 86.9773 273.1698 14.43281351487008 IRIDIUM 118 1 42807U 17039E 26256.43119089 .00000068 00000+0 17078-4 0 9997 2 42807 86.3986 316.7694 0002215 95.3117 264.8332 14.34216844482598 IRIDIUM 117 1 42808U 17039F 26256.24091274 .00000033 00000+0 47889-5 0 9998 2 42808 86.3988 316.8057 0002261 92.8045 267.3410 14.34217032482593 IRIDIUM 126 1 42809U 17039G 26256.61512626 .00000136 00000+0 41613-4 0 9991 2 42809 86.3984 316.7019 0002327 94.2663 265.8799 14.34217301482628 IRIDIUM 124 1 42810U 17039H 26256.44920963 .00000119 00000+0 29399-4 0 9999 2 42810 86.4433 253.4367 0002378 88.2458 271.9016 14.43279416487848 IRIDIUM 128 1 42811U 17039J 26256.32679037 .00000012 00000+0 -27853-5 0 9997 2 42811 86.4022 348.3181 0002009 93.4270 266.7156 14.34216973482618 IRIDIUM 121 1 42812U 17039K 26256.21554142 .00000046 00000+0 93127-5 0 9998 2 42812 86.3985 316.8971 0002170 94.6149 265.5294 14.34216958482444 IRIDIUM 133 1 42955U 17061A 26256.35850379 .00000175 00000+0 55442-4 0 9997 2 42955 86.4030 348.4247 0002155 94.2891 265.8551 14.34217655467418 IRIDIUM 100 1 42956U 17061B 26256.49169767 -.00000057 00000+0 -27339-4 0 9992 2 42956 86.4023 348.2857 0002030 95.1150 265.0277 14.34216606467430 IRIDIUM 122 1 42957U 17061C 26256.52975147 .00000075 00000+0 19584-4 0 9995 2 42957 86.4028 348.2703 0002234 93.5834 266.5617 14.34216935467443 IRIDIUM 129 1 42958U 17061D 26256.55512389 .00000094 00000+0 26526-4 0 9999 2 42958 86.4028 348.3276 0002319 99.6686 260.4772 14.34217398467467 IRIDIUM 119 1 42959U 17061E 26256.52341140 .00000191 00000+0 61166-4 0 9999 2 42959 86.4029 348.3370 0002260 94.0949 266.0505 14.34218169467474 IRIDIUM 107 1 42960U 17061F 26256.33313357 .00000081 00000+0 21764-4 0 9997 2 42960 86.4029 348.4382 0002251 88.6600 271.4854 14.34217564467456 IRIDIUM 132 1 42961U 17061G 26256.33947595 .00000063 00000+0 15605-4 0 9992 2 42961 86.4029 348.4145 0002195 95.2177 264.9269 14.34217566467453 IRIDIUM 136 1 42962U 17061H 26256.51072560 .00000062 00000+0 14956-4 0 9991 2 42962 86.4030 348.3502 0002177 95.2976 264.8468 14.34217526467499 IRIDIUM 139 1 42963U 17061J 26256.51706810 .00000105 00000+0 30345-4 0 9992 2 42963 86.4031 348.4107 0002160 93.5771 266.5672 14.34217662467508 IRIDIUM 125 1 42964U 17061K 26256.29507894 .00000135 00000+0 41110-4 0 9994 2 42964 86.4033 348.5661 0002657 89.6111 270.5390 14.34218054467487 IRIDIUM 135 1 43070U 17083A 26256.54827706 .00000016 00000+0 -14169-5 0 9996 2 43070 86.3919 285.0757 0002134 92.6884 267.4556 14.34217546456819 IRIDIUM 138 1 43071U 17083B 26256.15503582 .00000011 00000+0 -32255-5 0 9998 2 43071 86.3933 284.9492 0002276 93.3010 266.8446 14.34217804456746 IRIDIUM 116 1 43072U 17083C 26256.12332300 .00000019 00000+0 -11632-6 0 9999 2 43072 86.3919 285.2385 0001918 88.0213 272.1202 14.34217641456776 IRIDIUM 130 1 43073U 17083D 26256.51022163 .00000055 00000+0 12637-4 0 9999 2 43073 86.3929 285.3610 0002208 87.8274 272.3174 14.34218042456773 IRIDIUM 151 1 43074U 17083E 26256.55461934 .00000019 00000+0 -16114-6 0 9994 2 43074 86.3920 285.1179 0002162 91.4259 268.7184 14.34217770456807 IRIDIUM 134 1 43075U 17083F 26256.52290667 .00000015 00000+0 -18793-5 0 9995 2 43075 86.3923 285.1404 0002137 90.8155 269.3286 14.34217633456765 IRIDIUM 137 1 43076U 17083G 26256.32628584 .00000019 00000+0 -44330-6 0 9998 2 43076 86.3924 285.3174 0001818 96.1619 263.9784 14.34217608456802 IRIDIUM 141 1 43077U 17083H 26256.52924909 .00000013 00000+0 -23273-5 0 9997 2 43077 86.3918 285.0579 0002187 93.1786 266.9660 14.34217676456838 IRIDIUM 153 1 43078U 17083J 26256.41165697 .00000013 00000+0 -23096-5 0 9990 2 43078 86.3910 253.5681 0002441 89.2207 270.9268 14.34217348457928 IRIDIUM 131 1 43079U 17083K 26256.51656303 .00000043 00000+0 82004-5 0 9997 2 43079 86.3925 285.2555 0002213 93.8419 266.3030 14.34218252456762 IRIDIUM 144 1 43249U 18030A 26256.55753925 .00000080 00000+0 21466-4 0 9996 2 43249 86.3907 253.4340 0002183 88.1303 272.0143 14.34217882442802 IRIDIUM 149 1 43250U 18030B 26256.56388163 -.00000022 00000+0 -15084-4 0 9994 2 43250 86.3909 253.3975 0002214 89.9525 270.1925 14.34217073442820 IRIDIUM 157 1 43251U 18030C 26256.51313976 -.00000028 00000+0 -17032-4 0 9991 2 43251 86.3910 253.4738 0002171 88.8062 271.3383 14.34216610442790 IRIDIUM 140 1 43252U 18030D 26256.39262907 -.00000048 00000+0 -24313-4 0 9997 2 43252 86.3911 253.5366 0002177 88.0135 272.1310 14.34216982442835 IRIDIUM 145 1 43253U 18030E 26256.51948280 -.00000033 00000+0 -18858-4 0 9998 2 43253 86.3911 253.4556 0001958 84.3617 275.7802 14.34216882442784 IRIDIUM 146 1 43254U 18030F 26256.57022037 .00000054 00000+0 12096-4 0 9997 2 43254 86.3908 253.4462 0002191 88.1572 271.9875 14.34217596442803 IRIDIUM 148 1 43255U 18030G 26256.39897350 -.00000026 00000+0 -16412-4 0 9993 2 43255 86.3911 253.5625 0002124 91.6280 268.5159 14.34217048442811 IRIDIUM 142 1 43256U 18030H 26256.50679548 .00000024 00000+0 16141-5 0 9990 2 43256 86.3906 253.4030 0002126 88.2354 271.9086 14.34217552442795 IRIDIUM 150 1 43257U 18030J 26256.40531447 .00000022 00000+0 66316-6 0 9993 2 43257 86.3908 253.5646 0002243 87.5119 272.6334 14.34217743442801 IRIDIUM 143 1 43258U 18030K 26256.52582214 -.00000009 00000+0 -10427-4 0 9992 2 43258 86.3916 253.6104 0002134 87.1883 272.9557 14.34217241442751 IRIDIUM 161 1 43478U 18047C 26256.35781867 .00000323 00000+0 90153-4 0 9991 2 43478 86.4459 51.5713 0002261 95.9012 264.2446 14.43279982437857 IRIDIUM 152 1 43479U 18047D 26256.49854460 .00000167 00000+0 52564-4 0 9997 2 43479 86.3935 51.3743 0002106 92.2809 267.8628 14.34216391435145 IRIDIUM 147 1 43480U 18047E 26256.36534951 .00000156 00000+0 48627-4 0 9998 2 43480 86.3933 51.4372 0001885 89.1289 271.0123 14.34212050435127 IRIDIUM 110 1 43481U 18047F 26256.37169379 .00000083 00000+0 22464-4 0 9998 2 43481 86.3939 51.5287 0002330 96.9153 263.2308 14.34217937435118 IRIDIUM 162 1 43482U 18047G 26256.42083817 .00000186 00000+0 49250-4 0 9993 2 43482 86.4459 51.4350 0002186 90.8133 269.3318 14.43279194437851 IRIDIUM 160 1 43569U 18061A 26256.59660069 .00000078 00000+0 20652-4 0 9998 2 43569 86.4005 19.8211 0002158 95.3084 264.8358 14.34217346426046 IRIDIUM 166 1 43570U 18061B 26256.62197062 -.00000021 00000+0 -14645-4 0 9997 2 43570 86.3998 19.7603 0001950 93.5398 266.6021 14.34216499426077 IRIDIUM 158 1 43571U 18061C 26256.59026054 .00000156 00000+0 48764-4 0 9992 2 43571 86.4004 19.7831 0002186 92.8856 267.2590 14.34217628426032 IRIDIUM 165 1 43572U 18061D 26256.61563042 .00000059 00000+0 13931-4 0 9999 2 43572 86.4006 19.8207 0002080 92.4705 267.6729 14.34217402426066 IRIDIUM 155 1 43573U 18061E 26256.57757462 .00000021 00000+0 49806-6 0 9997 2 43573 86.4001 19.7012 0002148 91.6048 268.5394 14.34217224426027 IRIDIUM 154 1 43574U 18061F 26256.41900959 .00000008 00000+0 -40479-5 0 9994 2 43574 86.3999 19.9058 0001938 93.2308 266.9110 14.34217095426055 IRIDIUM 163 1 43575U 18061G 26256.39998212 .00000072 00000+0 18823-4 0 9998 2 43575 86.4001 19.8256 0002208 95.3481 264.7966 14.34217427426027 IRIDIUM 156 1 43576U 18061H 26256.58391353 .00000132 00000+0 40225-4 0 9991 2 43576 86.4002 19.7566 0002163 90.0276 270.1167 14.34216661426041 IRIDIUM 164 1 43577U 18061J 26256.35558323 .00000069 00000+0 17637-4 0 9999 2 43577 86.4002 19.8935 0001987 93.8910 266.2514 14.34217682426059 IRIDIUM 159 1 43578U 18061K 26256.39363890 .00000014 00000+0 -20209-5 0 9998 2 43578 86.3998 19.8130 0002091 95.4746 264.6688 14.34217200426029 IRIDIUM 180 1 43922U 19002A 26256.60244161 .00000162 00000+0 50821-4 0 9995 2 43922 86.3984 316.6597 0002211 96.4530 263.6917 14.34217434401664 IRIDIUM 176 1 43923U 19002B 26256.44903283 .00000770 00000+0 11827-3 0 9992 2 43923 86.6104 316.6551 0002399 92.5815 267.5677 14.72245607412238 IRIDIUM 168 1 43924U 19002C 26256.59609556 .00000118 00000+0 35006-4 0 9997 2 43924 86.3989 316.7422 0002229 95.8804 264.2646 14.34216631401647 IRIDIUM 173 1 43925U 19002D 26256.44387595 .00000059 00000+0 13830-4 0 9993 2 43925 86.3982 316.6907 0002244 93.9022 266.2431 14.34217178401603 IRIDIUM 169 1 43926U 19002E 26256.30984951 .00000227 00000+0 67664-4 0 9999 2 43926 86.4283 348.3690 0002415 85.4139 274.7335 14.38610382402892 IRIDIUM 172 1 43927U 19002F 26256.43753518 .00000076 00000+0 20050-4 0 9997 2 43927 86.3983 316.7018 0002227 95.9893 264.1557 14.34217063401619 IRIDIUM 175 1 43928U 19002G 26256.44316003 .00000103 00000+0 24499-4 0 9995 2 43928 86.4462 253.6112 0001375 329.7324 30.3798 14.43645339411710 IRIDIUM 171 1 43929U 19002H 26256.62781132 .00000157 00000+0 48907-4 0 9994 2 43929 86.3991 316.9383 0002137 93.3620 266.7820 14.34217053401639 IRIDIUM 170 1 43930U 19002J 26256.45522299 .00000501 00000+0 75539-4 0 9998 2 43930 86.6104 316.6542 0002480 94.7048 265.4453 14.72256836412245 IRIDIUM 167 1 43931U 19002K 26256.62146759 .00000154 00000+0 48007-4 0 9995 2 43931 86.3984 316.6482 0002109 89.1881 270.9557 14.34217033401634 IRIDIUM 181 1 56726U 23068S 26256.36277013 .00000196 00000+0 52231-4 0 9997 2 56726 86.4540 19.9210 0002115 97.4243 262.7199 14.43311325175157 IRIDIUM 177 1 56727U 23068T 26256.50605270 .00000609 00000+0 82449-4 0 9997 2 56727 86.1924 286.8857 0002585 92.1317 268.0198 14.77163497179422 IRIDIUM 174 1 56728U 23068U 26256.17099301 .00000521 00000+0 78704-4 0 9995 2 56728 86.6112 316.9293 0002704 93.1238 267.0288 14.72257176178962 IRIDIUM 178 1 56729U 23068V 26256.54218146 .00000735 00000+0 93668-4 0 9990 2 56729 86.6598 348.4634 0002547 94.4405 265.7107 14.80036924179438 IRIDIUM 179 1 56730U 23068W 26256.33398113 .00000810 00000+0 10356-3 0 9998 2 56730 86.6838 357.7852 0002368 90.8593 269.2900 14.80048756179404